| time (UTC) | temp F | wind direction | speed MPH | gust MPH | rain 1hr in | rain 24hr in | rain mn in | humidity % | barometer mb |
| 20260831025753 | 76 | 261 | 0.0 | 9.0 | 0.03 | 0.03 | 0.04 | 87 | 1020.5 |
| 20260831025253 | 76 | 327 | 0.0 | 1.0 | 0.01 | 0.01 | 0.01 | 86 | 1020.1 |
| 20260831024731 | 77 | 327 | 0.0 | 1.0 | 0.00 | 0.00 | 0.01 | 85 | 1020.1 |
| 20260831024158 | 77 | 327 | 0.0 | 1.0 | 0.00 | 0.00 | 0.00 | 85 | 1020.1 |
| 20260831023859 | 77 | 314 | 0.0 | 0.0 | 0.00 | 0.00 | 0.00 | 85 | 1020.2 |
| 20260831023119 | 77 | 314 | 0.0 | 0.0 | 0.00 | 0.00 | 0.00 | 86 | 1020.1 |
| 20260831022559 | 77 | 314 | 0.0 | 0.0 | 0.00 | 0.00 | 0.00 | 85 | 1020.1 |
| 20260831022306 | 77 | 314 | 0.0 | 0.0 | 0.00 | 0.00 | 0.00 | 85 | 1020.2 |
| 20260831021540 | 78 | 314 | 0.0 | 0.0 | 0.00 | 0.00 | 0.00 | 84 | 1020.1 |
| 20260831021043 | 78 | 314 | 0.0 | 0.0 | 0.00 | 0.00 | 0.00 | 83 | 1020.0 |
| 20260831020528 | 78 | 314 | 0.0 | 0.0 | 0.00 | 0.00 | 0.00 | 82 | 1020.0 |
| 20260831020029 | 78 | 316 | 0.0 | 0.0 | 0.00 | 0.00 | 0.00 | 82 | 1019.9 |
| 20260831015505 | 78 | 316 | 0.0 | 0.0 | 0.00 | 0.00 | 0.00 | 82 | 1020.0 |
| 20260831014942 | 78 | 315 | 0.0 | 1.0 | 0.00 | 0.00 | 0.00 | 81 | 1020.0 |
| 20260831014701 | 78 | 241 | 0.0 | 1.0 | 0.00 | 0.00 | 0.00 | 81 | 1020.0 |
| 20260831013939 | 78 | 230 | 0.0 | 0.0 | 0.00 | 0.00 | 0.00 | 81 | 1019.8 |
| 20260831013703 | 79 | 230 | 0.0 | 0.0 | 0.00 | 0.00 | 0.00 | 80 | 1020.0 |
| 20260831012918 | 79 | 230 | 0.0 | 0.0 | 0.00 | 0.00 | 0.00 | 79 | 1020.0 |
| 20260831012352 | 79 | 230 | 0.0 | 0.0 | 0.00 | 0.00 | 0.00 | 78 | 1020.0 |
| 20260831011826 | 79 | 230 | 0.0 | 0.0 | 0.00 | 0.00 | 0.00 | 78 | 1020.1 |
| 20260831011304 | 79 | 230 | 0.0 | 0.0 | 0.00 | 0.00 | 0.00 | 79 | 1020.2 |
| 20260831010802 | 79 | 230 | 0.0 | 1.0 | 0.00 | 0.00 | 0.00 | 79 | 1020.2 |
| 20260831010303 | 79 | 230 | 0.0 | 1.0 | 0.00 | 0.00 | 0.00 | 80 | 1020.2 |
| 20260831005725 | 79 | 229 | 0.0 | 0.0 | 0.00 | 0.00 | 0.00 | 81 | 1020.0 |
| 20260831005158 | 80 | 229 | 0.0 | 0.0 | 0.00 | 0.00 | 0.00 | 81 | 1020.1 |
| 20260831004653 | 80 | 229 | 0.0 | 2.0 | 0.00 | 0.00 | 0.00 | 80 | 1020.0 |
| 20260831004152 | 80 | 229 | 0.0 | 2.0 | 0.00 | 0.00 | 0.00 | 80 | 1019.9 |
| 20260831003849 | 80 | 191 | 0.0 | 2.0 | 0.00 | 0.00 | 0.00 | 80 | 1019.8 |
| 20260831003057 | 80 | 225 | 0.0 | 2.0 | 0.00 | 0.00 | 0.00 | 80 | 1019.6 |
| 20260831002555 | 79 | 218 | 0.0 | 2.0 | 0.00 | 0.00 | 0.00 | 80 | 1019.7 |
| 20260831002310 | 79 | 263 | 0.0 | 0.0 | 0.00 | 0.00 | 0.00 | 79 | 1019.6 |
| 20260831001551 | 79 | 263 | 0.0 | 0.0 | 0.00 | 0.00 | 0.00 | 79 | 1019.5 |
| 20260831001050 | 79 | 263 | 0.0 | 0.0 | 0.00 | 0.00 | 0.00 | 79 | 1019.5 |
| 20260831001023 | 79 | 263 | 0.0 | 0.0 | 0.00 | 0.00 | 0.00 | 80 | 1019.4 |
| 20260831000014 | 79 | 262 | 0.0 | 0.0 | 0.00 | 0.00 | 0.00 | 80 | 1019.4 |
| 20260830235445 | 79 | 263 | 0.0 | 0.0 | 0.00 | 0.00 | 0.00 | 80 | 1019.4 |
| 20260830234944 | 79 | 263 | 0.0 | 0.0 | 0.00 | 0.00 | 0.00 | 80 | 1019.4 |
| 20260830234421 | 79 | 262 | 0.0 | 0.0 | 0.00 | 0.00 | 0.00 | 80 | 1019.5 |
| 20260830233849 | 79 | 262 | 0.0 | 0.0 | 0.00 | 0.00 | 0.00 | 79 | 1019.5 |
| 20260830233348 | 80 | 263 | 0.0 | 0.0 | 0.00 | 0.00 | 0.00 | 77 | 1019.5 |
| 20260830233042 | 80 | 263 | 0.0 | 0.0 | 0.00 | 0.00 | 0.00 | 76 | 1019.4 |
| 20260830232320 | 81 | 263 | 0.0 | 1.0 | 0.00 | 0.00 | 0.00 | 76 | 1019.5 |
| 20260830231750 | 81 | 262 | 0.0 | 1.0 | 0.00 | 0.00 | 0.00 | 74 | 1019.4 |
| 20260830231247 | 82 | 262 | 0.0 | 0.0 | 0.00 | 0.00 | 0.00 | 73 | 1019.4 |
| 20260830230722 | 82 | 262 | 0.0 | 0.0 | 0.00 | 0.00 | 0.00 | 72 | 1019.4 |
| 20260830230154 | 83 | 262 | 0.0 | 0.0 | 0.00 | 0.00 | 0.00 | 71 | 1019.4 |
| 20260830225653 | 83 | 263 | 0.0 | 2.0 | 0.00 | 0.00 | 0.00 | 71 | 1019.4 |
| 20260830225124 | 83 | 263 | 0.0 | 2.0 | 0.00 | 0.00 | 0.00 | 70 | 1019.4 |
| 20260830224622 | 83 | 204 | 0.0 | 3.0 | 0.00 | 0.00 | 0.00 | 70 | 1019.4 |
| 20260830224054 | 84 | 204 | 0.0 | 3.0 | 0.00 | 0.00 | 0.00 | 69 | 1019.4 |
| 20260830223552 | 84 | 207 | 0.0 | 2.0 | 0.00 | 0.00 | 0.00 | 69 | 1019.4 |
| 20260830223311 | 84 | 256 | 0.0 | 2.0 | 0.00 | 0.00 | 0.00 | 69 | 1019.4 |
| 20260830222806 | 84 | 292 | 0.0 | 3.0 | 0.00 | 0.00 | 0.00 | 69 | 1019.6 |
| 20260830222038 | 84 | 287 | 0.0 | 4.0 | 0.00 | 0.00 | 0.00 | 69 | 1019.4 |
| 20260830221534 | 84 | 214 | 0.0 | 4.0 | 0.00 | 0.00 | 0.00 | 69 | 1019.4 |
| 20260830221031 | 84 | 255 | 1.0 | 4.0 | 0.00 | 0.00 | 0.00 | 69 | 1019.5 |
| 20260830220528 | 84 | 210 | 1.0 | 4.0 | 0.00 | 0.00 | 0.00 | 70 | 1019.5 |
| 20260830220025 | 84 | 201 | 1.0 | 4.0 | 0.00 | 0.00 | 0.00 | 70 | 1019.4 |
| 20260830215752 | 83 | 230 | 1.0 | 3.0 | 0.00 | 0.00 | 0.00 | 70 | 1019.3 |
| 20260830215000 | 83 | 76 | 0.0 | 3.0 | 0.00 | 0.00 | 0.00 | 70 | 1019.2 |
| 20260830214458 | 83 | 217 | 0.0 | 4.0 | 0.00 | 0.00 | 0.00 | 70 | 1019.1 |
| 20260830214423 | 84 | 272 | 1.0 | 2.0 | 0.00 | 0.00 | 0.00 | 69 | 1019.3 |
| 20260830214144 | 83 | 277 | 1.0 | 4.0 | 0.00 | 0.00 | 0.00 | 69 | 1019.2 |
| 20260830212915 | 84 | 290 | 0.0 | 5.0 | 0.00 | 0.00 | 0.00 | 69 | 1019.3 |
| 20260830212413 | 84 | 211 | 1.0 | 5.0 | 0.00 | 0.00 | 0.00 | 70 | 1019.3 |
| 20260830211847 | 83 | 302 | 1.0 | 4.0 | 0.00 | 0.00 | 0.00 | 70 | 1019.3 |
| 20260830211320 | 83 | 213 | 0.0 | 2.0 | 0.00 | 0.00 | 0.00 | 70 | 1019.4 |
| 20260830210818 | 83 | 158 | 1.0 | 4.0 | 0.00 | 0.00 | 0.00 | 70 | 1019.4 |
| 20260830210251 | 83 | 314 | 1.0 | 6.0 | 0.00 | 0.00 | 0.00 | 70 | 1019.4 |
| 20260830210013 | 83 | 307 | 1.0 | 6.0 | 0.00 | 0.00 | 0.00 | 70 | 1019.4 |
| 20260830205709 | 83 | 323 | 1.0 | 7.0 | 0.00 | 0.00 | 0.00 | 69 | 1019.4 |
| 20260830204719 | 83 | 165 | 1.0 | 7.0 | 0.00 | 0.00 | 0.00 | 69 | 1019.4 |
| 20260830204153 | 83 | 296 | 1.0 | 3.0 | 0.00 | 0.00 | 0.00 | 70 | 1019.4 |
| 20260830203647 | 84 | 253 | 1.0 | 3.0 | 0.00 | 0.00 | 0.00 | 69 | 1019.5 |
| 20260830203146 | 84 | 302 | 1.0 | 5.0 | 0.00 | 0.00 | 0.00 | 69 | 1019.5 |
| 20260830202617 | 84 | 189 | 1.0 | 4.0 | 0.00 | 0.00 | 0.00 | 69 | 1019.6 |
| 20260830202117 | 84 | 302 | 1.0 | 4.0 | 0.00 | 0.00 | 0.00 | 69 | 1019.5 |
| 20260830201547 | 83 | 234 | 1.0 | 4.0 | 0.00 | 0.00 | 0.00 | 69 | 1019.5 |
| 20260830201049 | 83 | 313 | 1.0 | 3.0 | 0.00 | 0.00 | 0.00 | 71 | 1019.6 |
| 20260830200523 | 82 | 357 | 1.0 | 5.0 | 0.00 | 0.00 | 0.00 | 71 | 1019.8 |
| 20260830200024 | 81 | 199 | 1.0 | 5.0 | 0.00 | 0.00 | 0.00 | 71 | 1019.7 |
| 20260830195523 | 82 | 157 | 0.0 | 5.0 | 0.00 | 0.00 | 0.00 | 71 | 1019.8 |
| 20260830195023 | 82 | 236 | 1.0 | 5.0 | 0.00 | 0.00 | 0.00 | 70 | 1020.0 |
| 20260830194458 | 82 | 315 | 1.0 | 7.0 | 0.00 | 0.00 | 0.00 | 70 | 1020.2 |
| 20260830194001 | 82 | 224 | 1.0 | 7.0 | 0.00 | 0.00 | 0.00 | 69 | 1020.2 |
| 20260830193443 | 82 | 222 | 1.0 | 4.0 | 0.00 | 0.00 | 0.00 | 69 | 1020.3 |
| 20260830192945 | 82 | 294 | 1.0 | 4.0 | 0.00 | 0.00 | 0.00 | 69 | 1020.4 |
| 20260830192422 | 82 | 315 | 1.0 | 5.0 | 0.00 | 0.00 | 0.00 | 69 | 1020.5 |
| 20260830191921 | 82 | 222 | 1.0 | 5.0 | 0.00 | 0.00 | 0.00 | 69 | 1020.5 |
| 20260830191641 | 82 | 321 | 0.0 | 3.0 | 0.00 | 0.00 | 0.00 | 68 | 1020.5 |
| 20260830190918 | 82 | 248 | 1.0 | 4.0 | 0.00 | 0.00 | 0.00 | 67 | 1020.7 |
| 20260830190415 | 83 | 255 | 1.0 | 4.0 | 0.00 | 0.00 | 0.00 | 67 | 1020.7 |
| 20260830185909 | 83 | 230 | 0.0 | 3.0 | 0.00 | 0.00 | 0.00 | 66 | 1020.6 |
| 20260830185353 | 83 | 276 | 1.0 | 3.0 | 0.00 | 0.00 | 0.00 | 65 | 1020.7 |
| 20260830184851 | 84 | 265 | 1.0 | 4.0 | 0.00 | 0.00 | 0.00 | 65 | 1020.8 |
| 20260830184351 | 84 | 319 | 1.0 | 4.0 | 0.00 | 0.00 | 0.00 | 64 | 1020.7 |
| 20260830183849 | 85 | 250 | 1.0 | 8.0 | 0.00 | 0.00 | 0.00 | 64 | 1020.7 |
| 20260830183345 | 85 | 303 | 2.0 | 8.0 | 0.00 | 0.00 | 0.00 | 62 | 1020.8 |
| 20260830182844 | 86 | 307 | 2.0 | 7.0 | 0.00 | 0.00 | 0.00 | 62 | 1020.9 |
| 20260830182322 | 86 | 329 | 2.0 | 6.0 | 0.00 | 0.00 | 0.00 | 63 | 1021.0 |
| 20260830182031 | 86 | 238 | 2.0 | 9.0 | 0.00 | 0.00 | 0.00 | 63 | 1020.9 |
| 20260830181316 | 85 | 233 | 2.0 | 9.0 | 0.00 | 0.00 | 0.00 | 65 | 1021.0 |
| 20260830181006 | 85 | 335 | 2.0 | 9.0 | 0.00 | 0.00 | 0.00 | 65 | 1021.1 |
| 20260830180221 | 84 | 285 | 2.0 | 9.0 | 0.00 | 0.00 | 0.00 | 67 | 1021.2 |
| 20260830175659 | 84 | 231 | 2.0 | 7.0 | 0.00 | 0.00 | 0.00 | 66 | 1021.2 |
| 20260830175145 | 84 | 285 | 1.0 | 7.0 | 0.00 | 0.00 | 0.00 | 67 | 1021.4 |
| 20260830174643 | 84 | 286 | 1.0 | 6.0 | 0.00 | 0.00 | 0.00 | 68 | 1021.4 |
| 20260830174142 | 83 | 259 | 2.0 | 6.0 | 0.00 | 0.00 | 0.00 | 69 | 1021.4 |
| 20260830173639 | 83 | 219 | 2.0 | 6.0 | 0.00 | 0.00 | 0.00 | 68 | 1021.5 |
| 20260830173351 | 83 | 225 | 2.0 | 6.0 | 0.00 | 0.00 | 0.00 | 67 | 1021.5 |
| 20260830173100 | 84 | 198 | 1.0 | 6.0 | 0.00 | 0.00 | 0.00 | 67 | 1021.5 |
| 20260830172110 | 84 | 335 | 2.0 | 7.0 | 0.00 | 0.00 | 0.00 | 67 | 1021.6 |
| 20260830171545 | 84 | 300 | 1.0 | 7.0 | 0.00 | 0.00 | 0.00 | 66 | 1021.8 |
| 20260830171030 | 84 | 255 | 1.0 | 7.0 | 0.00 | 0.00 | 0.00 | 66 | 1021.9 |
| 20260830170450 | 84 | 146 | 2.0 | 7.0 | 0.00 | 0.00 | 0.00 | 67 | 1022.0 |
| 20260830165947 | 83 | 237 | 2.0 | 9.0 | 0.00 | 0.00 | 0.00 | 68 | 1022.0 |
| 20260830165447 | 83 | 245 | 1.0 | 9.0 | 0.00 | 0.00 | 0.00 | 69 | 1022.0 |
| 20260830164921 | 82 | 331 | 2.0 | 7.0 | 0.00 | 0.00 | 0.00 | 68 | 1022.0 |
| 20260830164354 | 83 | 179 | 2.0 | 8.0 | 0.00 | 0.00 | 0.00 | 68 | 1022.0 |
| 20260830163830 | 82 | 236 | 2.0 | 8.0 | 0.00 | 0.00 | 0.00 | 69 | 1022.0 |
| 20260830163301 | 82 | 207 | 2.0 | 9.0 | 0.00 | 0.00 | 0.00 | 70 | 1022.0 |
| 20260830162738 | 82 | 210 | 3.0 | 6.0 | 0.00 | 0.00 | 0.00 | 70 | 1022.2 |
| 20260830162210 | 81 | 205 | 2.0 | 6.0 | 0.00 | 0.00 | 0.00 | 70 | 1022.2 |
| 20260830161706 | 81 | 252 | 1.0 | 5.0 | 0.00 | 0.00 | 0.00 | 70 | 1022.3 |
| 20260830161208 | 81 | 302 | 1.0 | 4.0 | 0.00 | 0.00 | 0.00 | 70 | 1022.4 |
| 20260830160707 | 81 | 207 | 1.0 | 4.0 | 0.00 | 0.00 | 0.00 | 70 | 1022.5 |
| 20260830160206 | 81 | 318 | 1.0 | 5.0 | 0.00 | 0.00 | 0.00 | 71 | 1022.5 |
| 20260830155708 | 81 | 193 | 1.0 | 5.0 | 0.00 | 0.00 | 0.00 | 71 | 1022.4 |
| 20260830155700 | 80 | 55 | 1.0 | 5.0 | 0.00 | 0.00 | 0.00 | 72 | 1022.6 |
| 20260830154643 | 80 | 223 | 1.0 | 8.0 | 0.00 | 0.00 | 0.00 | 75 | 1022.5 |
| 20260830154130 | 80 | 247 | 3.0 | 8.0 | 0.00 | 0.00 | 0.00 | 76 | 1022.4 |
| 20260830153632 | 80 | 155 | 2.0 | 8.0 | 0.00 | 0.00 | 0.00 | 75 | 1022.5 |
| 20260830153105 | 80 | 126 | 3.0 | 9.0 | 0.00 | 0.00 | 0.00 | 75 | 1022.5 |
| 20260830152615 | 80 | 195 | 3.0 | 9.0 | 0.00 | 0.00 | 0.00 | 75 | 1022.5 |
| 20260830152034 | 80 | 143 | 3.0 | 9.0 | 0.00 | 0.00 | 0.00 | 76 | 1022.6 |
| 20260830151533 | 79 | 231 | 3.0 | 9.0 | 0.00 | 0.00 | 0.00 | 76 | 1022.6 |
| 20260830151004 | 79 | 105 | 3.0 | 10.0 | 0.00 | 0.00 | 0.00 | 76 | 1022.6 |
| 20260830150501 | 79 | 194 | 4.0 | 10.0 | 0.00 | 0.00 | 0.00 | 76 | 1022.7 |
| 20260830150200 | 79 | 168 | 4.0 | 11.0 | 0.00 | 0.00 | 0.00 | 75 | 1022.6 |
| 20260830145900 | 79 | 174 | 4.0 | 11.0 | 0.00 | 0.00 | 0.00 | 77 | 1022.6 |
| 20260830144843 | 78 | 231 | 4.0 | 11.0 | 0.00 | 0.00 | 0.00 | 77 | 1022.6 |
| 20260830144344 | 78 | 165 | 4.0 | 11.0 | 0.00 | 0.00 | 0.00 | 77 | 1022.5 |
| 20260830143816 | 78 | 157 | 4.0 | 11.0 | 0.00 | 0.00 | 0.00 | 78 | 1022.5 |
| 20260830143246 | 78 | 195 | 2.0 | 11.0 | 0.00 | 0.00 | 0.00 | 78 | 1022.6 |
| 20260830142744 | 77 | 233 | 1.0 | 6.0 | 0.00 | 0.00 | 0.00 | 79 | 1022.7 |
| 20260830142218 | 76 | 225 | 1.0 | 4.0 | 0.00 | 0.00 | 0.00 | 80 | 1022.9 |
| 20260830141654 | 76 | 140 | 1.0 | 5.0 | 0.00 | 0.00 | 0.00 | 81 | 1023.0 |
| 20260830141149 | 76 | 212 | 1.0 | 5.0 | 0.00 | 0.00 | 0.00 | 81 | 1023.0 |
| 20260830140910 | 76 | 150 | 1.0 | 3.0 | 0.00 | 0.00 | 0.00 | 80 | 1023.0 |
| 20260830140119 | 76 | 91 | 0.0 | 2.0 | 0.00 | 0.00 | 0.00 | 80 | 1023.0 |
| 20260830135616 | 75 | 227 | 0.0 | 1.0 | 0.00 | 0.00 | 0.00 | 82 | 1023.0 |
| 20260830135051 | 74 | 110 | 0.0 | 1.0 | 0.00 | 0.00 | 0.00 | 83 | 1023.2 |
| 20260830134546 | 73 | 321 | 0.0 | 1.0 | 0.00 | 0.00 | 0.00 | 83 | 1023.2 |
| 20260830134043 | 73 | 221 | 0.0 | 1.0 | 0.00 | 0.00 | 0.00 | 84 | 1023.3 |
| 20260830133519 | 72 | 221 | 0.0 | 2.0 | 0.00 | 0.00 | 0.00 | 85 | 1023.4 |
| 20260830133212 | 72 | 225 | 0.0 | 2.0 | 0.00 | 0.00 | 0.00 | 84 | 1023.4 |
| 20260830132449 | 72 | 225 | 0.0 | 0.0 | 0.00 | 0.00 | 0.00 | 84 | 1023.5 |
| 20260830131921 | 71 | 225 | 0.0 | 3.0 | 0.00 | 0.00 | 0.00 | 85 | 1023.6 |
| 20260830131417 | 71 | 226 | 0.0 | 3.0 | 0.00 | 0.00 | 0.00 | 84 | 1023.5 |
| 20260830130915 | 71 | 219 | 0.0 | 1.0 | 0.00 | 0.00 | 0.00 | 85 | 1023.6 |
| 20260830130412 | 71 | 216 | 0.0 | 2.0 | 0.00 | 0.00 | 0.00 | 85 | 1023.6 |
| 20260830125908 | 71 | 216 | 0.0 | 2.0 | 0.00 | 0.00 | 0.00 | 85 | 1023.6 |
| 20260830125407 | 70 | 182 | 0.0 | 0.0 | 0.00 | 0.00 | 0.00 | 85 | 1023.7 |
| 20260830124841 | 70 | 183 | 0.0 | 0.0 | 0.00 | 0.00 | 0.00 | 85 | 1023.7 |
| 20260830124313 | 70 | 183 | 0.0 | 2.0 | 0.00 | 0.00 | 0.00 | 84 | 1023.8 |
| 20260830123813 | 70 | 183 | 0.0 | 2.0 | 0.00 | 0.00 | 0.00 | 84 | 1023.9 |
| 20260830123310 | 70 | 169 | 0.0 | 0.0 | 0.00 | 0.00 | 0.00 | 84 | 1023.9 |
| 20260830122810 | 70 | 169 | 0.0 | 0.0 | 0.00 | 0.00 | 0.00 | 84 | 1023.8 |
| 20260830122310 | 69 | 168 | 0.0 | 0.0 | 0.00 | 0.00 | 0.00 | 84 | 1023.8 |
| 20260830121735 | 69 | 169 | 0.0 | 0.0 | 0.00 | 0.00 | 0.00 | 84 | 1023.8 |
| 20260830121209 | 69 | 168 | 0.0 | 0.0 | 0.00 | 0.00 | 0.00 | 84 | 1023.8 |
| 20260830120640 | 69 | 168 | 0.0 | 0.0 | 0.00 | 0.00 | 0.00 | 84 | 1023.7 |
| 20260830120139 | 69 | 196 | 0.0 | 0.0 | 0.00 | 0.00 | 0.00 | 84 | 1023.7 |
| 20260830115611 | 68 | 196 | 0.0 | 0.0 | 0.00 | 0.00 | 0.00 | 85 | 1023.7 |
| 20260830115334 | 68 | 196 | 0.0 | 0.0 | 0.00 | 0.00 | 0.00 | 85 | 1023.6 |
| 20260830114544 | 68 | 299 | 0.0 | 0.0 | 0.00 | 0.00 | 0.00 | 86 | 1023.6 |
| 20260830114249 | 67 | 298 | 0.0 | 0.0 | 0.00 | 0.00 | 0.00 | 87 | 1023.7 |
| 20260830113524 | 67 | 298 | 0.0 | 0.0 | 0.00 | 0.00 | 0.00 | 88 | 1023.7 |
| 20260830113024 | 67 | 298 | 0.0 | 0.0 | 0.00 | 0.00 | 0.00 | 88 | 1023.7 |
| 20260830112522 | 66 | 298 | 0.0 | 0.0 | 0.00 | 0.00 | 0.00 | 89 | 1023.8 |
| 20260830112252 | 66 | 298 | 0.0 | 0.0 | 0.00 | 0.00 | 0.00 | 88 | 1023.7 |
| 20260830111729 | 65 | 298 | 0.0 | 0.0 | 0.00 | 0.00 | 0.00 | 88 | 1023.8 |
| 20260830110942 | 65 | 298 | 0.0 | 0.0 | 0.00 | 0.00 | 0.00 | 88 | 1023.8 |
| 20260830110650 | 65 | 298 | 0.0 | 0.0 | 0.00 | 0.00 | 0.00 | 88 | 1023.8 |
| 20260830105924 | 65 | 298 | 0.0 | 0.0 | 0.00 | 0.00 | 0.00 | 88 | 1023.7 |
| 20260830105426 | 65 | 298 | 0.0 | 0.0 | 0.00 | 0.00 | 0.00 | 88 | 1023.8 |
| 20260830105126 | 65 | 298 | 0.0 | 0.0 | 0.00 | 0.00 | 0.00 | 89 | 1023.7 |
| 20260830104403 | 65 | 299 | 0.0 | 0.0 | 0.00 | 0.00 | 0.00 | 89 | 1023.8 |
| 20260830104130 | 64 | 299 | 0.0 | 0.0 | 0.00 | 0.00 | 0.00 | 89 | 1023.7 |
| 20260830103345 | 64 | 298 | 0.0 | 0.0 | 0.00 | 0.00 | 0.00 | 89 | 1023.7 |
| 20260830102842 | 64 | 298 | 0.0 | 0.0 | 0.00 | 0.00 | 0.00 | 89 | 1023.6 |
| 20260830102330 | 64 | 298 | 0.0 | 0.0 | 0.00 | 0.00 | 0.00 | 89 | 1023.7 |
| 20260830101828 | 64 | 298 | 0.0 | 0.0 | 0.00 | 0.00 | 0.00 | 89 | 1023.7 |
| 20260830101555 | 63 | 298 | 0.0 | 0.0 | 0.00 | 0.00 | 0.00 | 89 | 1023.7 |
| 20260830100820 | 63 | 298 | 0.0 | 0.0 | 0.00 | 0.00 | 0.00 | 88 | 1023.7 |
| 20260830100303 | 63 | 298 | 0.0 | 0.0 | 0.00 | 0.00 | 0.00 | 88 | 1023.7 |
| 20260830095759 | 63 | 298 | 0.0 | 0.0 | 0.00 | 0.00 | 0.00 | 88 | 1023.7 |
| 20260830095258 | 63 | 298 | 0.0 | 0.0 | 0.00 | 0.00 | 0.00 | 88 | 1023.7 |
| 20260830094809 | 63 | 298 | 0.0 | 0.0 | 0.00 | 0.00 | 0.00 | 88 | 1023.6 |
| 20260830094235 | 63 | 299 | 0.0 | 0.0 | 0.00 | 0.00 | 0.00 | 88 | 1023.6 |
| 20260830093727 | 63 | 298 | 0.0 | 0.0 | 0.00 | 0.00 | 0.00 | 88 | 1023.7 |
| 20260830093225 | 63 | 298 | 0.0 | 0.0 | 0.00 | 0.00 | 0.00 | 88 | 1023.7 |
| 20260830092722 | 63 | 299 | 0.0 | 0.0 | 0.00 | 0.00 | 0.00 | 88 | 1023.7 |
| 20260830092157 | 63 | 299 | 0.0 | 0.0 | 0.00 | 0.00 | 0.00 | 88 | 1023.7 |
| 20260830091653 | 63 | 299 | 0.0 | 0.0 | 0.00 | 0.00 | 0.00 | 88 | 1023.6 |
| 20260830091150 | 63 | 298 | 0.0 | 0.0 | 0.00 | 0.00 | 0.00 | 88 | 1023.6 |
| 20260830090647 | 62 | 298 | 0.0 | 0.0 | 0.00 | 0.00 | 0.00 | 89 | 1023.6 |
| 20260830090121 | 62 | 298 | 0.0 | 0.0 | 0.00 | 0.00 | 0.00 | 88 | 1023.6 |
| 20260830085617 | 62 | 298 | 0.0 | 0.0 | 0.00 | 0.00 | 0.00 | 88 | 1023.6 |
| 20260830085604 | 62 | 298 | 0.0 | 0.0 | 0.00 | 0.00 | 0.00 | 87 | 1023.7 |
| 20260830084614 | 62 | 298 | 0.0 | 0.0 | 0.00 | 0.00 | 0.00 | 87 | 1023.5 |
| 20260830084045 | 62 | 298 | 0.0 | 0.0 | 0.00 | 0.00 | 0.00 | 87 | 1023.6 |
| 20260830083541 | 62 | 298 | 0.0 | 0.0 | 0.00 | 0.00 | 0.00 | 88 | 1023.6 |
| 20260830083016 | 62 | 298 | 0.0 | 0.0 | 0.00 | 0.00 | 0.00 | 88 | 1023.6 |
| 20260830082451 | 62 | 298 | 0.0 | 0.0 | 0.00 | 0.00 | 0.00 | 88 | 1023.6 |
| 20260830081947 | 62 | 298 | 0.0 | 0.0 | 0.00 | 0.00 | 0.00 | 88 | 1023.8 |
| 20260830081447 | 62 | 298 | 0.0 | 0.0 | 0.00 | 0.00 | 0.00 | 88 | 1024.0 |
| 20260830080941 | 61 | 298 | 0.0 | 0.0 | 0.00 | 0.00 | 0.00 | 88 | 1024.1 |
| 20260830080439 | 61 | 298 | 0.0 | 0.0 | 0.00 | 0.00 | 0.00 | 88 | 1024.3 |
| 20260830075937 | 61 | 298 | 0.0 | 0.0 | 0.00 | 0.00 | 0.00 | 87 | 1024.2 |
| 20260830075434 | 61 | 298 | 0.0 | 0.0 | 0.00 | 0.00 | 0.00 | 87 | 1024.1 |
| 20260830074906 | 61 | 299 | 0.0 | 0.0 | 0.00 | 0.00 | 0.00 | 87 | 1024.1 |
| 20260830074403 | 61 | 298 | 0.0 | 0.0 | 0.00 | 0.00 | 0.00 | 87 | 1024.0 |
| 20260830073838 | 61 | 298 | 0.0 | 0.0 | 0.00 | 0.00 | 0.00 | 87 | 1024.0 |
| 20260830073311 | 61 | 298 | 0.0 | 0.0 | 0.00 | 0.00 | 0.00 | 87 | 1024.0 |
| 20260830072744 | 61 | 298 | 0.0 | 0.0 | 0.00 | 0.00 | 0.00 | 86 | 1024.1 |
| 20260830072242 | 61 | 299 | 0.0 | 0.0 | 0.00 | 0.00 | 0.00 | 86 | 1024.0 |
| 20260830071737 | 61 | 298 | 0.0 | 0.0 | 0.00 | 0.00 | 0.00 | 86 | 1024.1 |
| 20260830071235 | 61 | 298 | 0.0 | 0.0 | 0.00 | 0.00 | 0.00 | 87 | 1024.0 |
| 20260830070731 | 61 | 298 | 0.0 | 0.0 | 0.00 | 0.00 | 0.00 | 87 | 1024.1 |
| 20260830070231 | 60 | 298 | 0.0 | 0.0 | 0.00 | 0.00 | 0.00 | 87 | 1024.2 |
| 20260830065701 | 60 | 298 | 0.0 | 0.0 | 0.00 | 0.00 | 0.00 | 87 | 1024.1 |
| 20260830065159 | 60 | 298 | 0.0 | 0.0 | 0.00 | 0.00 | 0.00 | 87 | 1024.2 |
| 20260830064853 | 60 | 298 | 0.0 | 0.0 | 0.00 | 0.00 | 0.00 | 87 | 1024.2 |
| 20260830064127 | 60 | 299 | 0.0 | 0.0 | 0.00 | 0.00 | 0.00 | 87 | 1024.3 |
| 20260830063621 | 60 | 298 | 0.0 | 0.0 | 0.00 | 0.00 | 0.00 | 87 | 1024.3 |
| 20260830063321 | 60 | 298 | 0.0 | 0.0 | 0.00 | 0.00 | 0.00 | 87 | 1024.3 |
| 20260830062553 | 60 | 298 | 0.0 | 0.0 | 0.00 | 0.00 | 0.00 | 87 | 1024.3 |
| 20260830062051 | 60 | 298 | 0.0 | 0.0 | 0.00 | 0.00 | 0.00 | 87 | 1024.4 |
| 20260830061523 | 60 | 299 | 0.0 | 0.0 | 0.00 | 0.00 | 0.00 | 87 | 1024.3 |
| 20260830061022 | 60 | 298 | 0.0 | 0.0 | 0.00 | 0.00 | 0.00 | 87 | 1024.4 |
| 20260830060453 | 60 | 298 | 0.0 | 0.0 | 0.00 | 0.00 | 0.00 | 87 | 1024.4 |
| 20260830055954 | 60 | 299 | 0.0 | 0.0 | 0.00 | 0.00 | 0.00 | 86 | 1024.5 |
| 20260830055423 | 60 | 298 | 0.0 | 0.0 | 0.00 | 0.00 | 0.00 | 86 | 1024.4 |
| 20260830054919 | 60 | 298 | 0.0 | 0.0 | 0.00 | 0.00 | 0.00 | 86 | 1024.3 |
| 20260830054353 | 60 | 299 | 0.0 | 0.0 | 0.00 | 0.00 | 0.00 | 86 | 1024.3 |
| 20260830054058 | 60 | 298 | 0.0 | 0.0 | 0.00 | 0.00 | 0.00 | 85 | 1024.4 |
| 20260830053323 | 60 | 298 | 0.0 | 0.0 | 0.00 | 0.00 | 0.00 | 85 | 1024.4 |
| 20260830052819 | 61 | 299 | 0.0 | 0.0 | 0.00 | 0.00 | 0.00 | 85 | 1024.5 |
| 20260830052514 | 60 | 298 | 0.0 | 0.0 | 0.00 | 0.00 | 0.00 | 85 | 1024.5 |
| 20260830051747 | 60 | 298 | 0.0 | 0.0 | 0.00 | 0.00 | 0.00 | 85 | 1024.5 |
| 20260830051505 | 60 | 298 | 0.0 | 0.0 | 0.00 | 0.00 | 0.00 | 84 | 1024.5 |
| 20260830050730 | 60 | 299 | 0.0 | 0.0 | 0.00 | 0.00 | 0.00 | 84 | 1024.5 |
| 20260830050201 | 60 | 298 | 0.0 | 0.0 | 0.00 | 0.00 | 0.00 | 84 | 1024.3 |
| 20260830045906 | 60 | 299 | 0.0 | 0.0 | 0.00 | 0.00 | 0.00 | 84 | 1024.3 |
| 20260830045617 | 61 | 298 | 0.0 | 0.0 | 0.00 | 0.00 | 0.00 | 84 | 1024.3 |
| 20260830044618 | 61 | 298 | 0.0 | 0.0 | 0.00 | 0.00 | 0.00 | 84 | 1024.1 |
| 20260830044347 | 61 | 298 | 0.0 | 0.0 | 0.00 | 0.00 | 0.00 | 84 | 1024.1 |
| 20260830043552 | 61 | 298 | 0.0 | 0.0 | 0.00 | 0.00 | 0.00 | 84 | 1024.2 |
| 20260830043028 | 61 | 298 | 0.0 | 0.0 | 0.00 | 0.00 | 0.00 | 84 | 1024.1 |
| 20260830042527 | 61 | 298 | 0.0 | 0.0 | 0.00 | 0.00 | 0.00 | 84 | 1024.1 |
| 20260830042006 | 61 | 298 | 0.0 | 0.0 | 0.00 | 0.00 | 0.00 | 83 | 1024.2 |
| 20260830041717 | 61 | 298 | 0.0 | 0.0 | 0.00 | 0.00 | 0.00 | 83 | 1024.1 |
| 20260830040954 | 61 | 298 | 0.0 | 0.0 | 0.00 | 0.00 | 0.00 | 83 | 1024.0 |
| 20260830040707 | 62 | 298 | 0.0 | 0.0 | 0.00 | 0.00 | 0.00 | 83 | 1024.0 |
| 20260830040159 | 61 | 298 | 0.0 | 0.0 | 0.00 | 0.00 | 0.00 | 83 | 1023.8 |
| 20260830040147 | 62 | 298 | 0.0 | 0.0 | 0.00 | 0.00 | 0.00 | 84 | 1024.0 |
| 20260830034918 | 62 | 298 | 0.0 | 0.0 | 0.00 | 0.00 | 0.00 | 83 | 1023.8 |
| 20260830034354 | 62 | 298 | 0.0 | 0.0 | 0.00 | 0.00 | 0.00 | 82 | 1023.8 |
| 20260830033828 | 62 | 298 | 0.0 | 0.0 | 0.00 | 0.00 | 0.00 | 83 | 1023.8 |
| 20260830033323 | 62 | 298 | 0.0 | 0.0 | 0.00 | 0.00 | 0.00 | 82 | 1024.0 |
| 20260830032824 | 62 | 298 | 0.0 | 0.0 | 0.00 | 0.00 | 0.00 | 81 | 1023.9 |
| 20260830032310 | 62 | 299 | 0.0 | 0.0 | 0.00 | 0.00 | 0.00 | 81 | 1024.1 |
| 20260830031814 | 63 | 298 | 0.0 | 0.0 | 0.00 | 0.00 | 0.00 | 81 | 1024.0 |
| 20260830031307 | 63 | 298 | 0.0 | 0.0 | 0.00 | 0.00 | 0.00 | 81 | 1024.1 |
| 20260830031036 | 63 | 298 | 0.0 | 0.0 | 0.00 | 0.00 | 0.00 | 81 | 1024.0 |
| 20260830030239 | 63 | 298 | 0.0 | 0.0 | 0.00 | 0.00 | 0.00 | 80 | 1024.1 |